{"data":{"norad_id":66813,"epoch":"2026-05-25T03:10:07.946688Z","epoch_age_seconds":56759,"freshness":"FRESH","line1":"1 66813U 25278Y   26145.13203642  .00028063  00000+0  10250-2 0  9995","line2":"2 66813  43.0020  42.3387 0001233 258.2622 101.8091 15.27595464 26903","mean_motion":15.27595464,"eccentricity":0.0001233,"inclination_deg":43.002,"raan_deg":42.3387,"arg_perigee_deg":258.2622,"mean_anomaly_deg":101.8091,"bstar":0.001025,"rev_number":2690,"period_min":94.265794442029,"perigee_km":482.15681311482,"apogee_km":483.84877018744,"semimajor_km":6861.1397916511,"source":"CELESTRAK","updated_at":"2026-05-25T13:38:21.331699Z"}}